Regional Weather Roundup
Issued by NWS

Home | Current Version | Previous Version | Graphics & Text | Print | Product List | Glossary On
Versions: 1 2 3 4 5 6 7 8 9 10 11 12 13 14 15 16 17 18 19 20 21 22 23 24 25 26 27 28 29 30 31 32 33 34 35 36 37 38 39 40 41 42 43 44 45 46 47 48 49 50
000
ASUS45 KABQ 251301
RWRNM
WEATHER ROUNDUP FOR NEW MEXICO
NATIONAL WEATHER SERVICE ALBUQUERQUE NM
600 AM MST TUE NOV 25 2014

NOTE: "FAIR" MEANS FEW OR NO CLOUDS BELOW 12,000 FEET AGL WITH NO
       SIGNIFICANT WEATHER OR OBSTRUCTIONS TO VISION.

      THIS PRODUCT IS RELEASED AS TWO VERSIONS.  ONE VERSION NEAR
      THE TOP OF THE HOUR CONTAINING PRELIMINARY DATA FROM ALBUQUERQUE
      AND OTHER STATIONS.  A FINAL VERSION WITH ADDITIONAL DATA IS
      ISSUED ABOUT 10 MINUTES AFTER THE HOUR.

NMZ501-503-504-510>518-251400-
NORTHWEST PLATEAU/NORTHCENTRAL MOUNTAINS

CITY           SKY/WX    TMP DP  RH WIND       PRES   REMARKS
FARMINGTON     CLEAR     19  10  68 CALM      30.40R
SANTA FE       PTCLDY    12   6  77 CALM      30.34S
TAOS           MOCLDY     5   1  85 N3        30.32F
ANGEL FIRE     FAIR      -1  -6  81 S7        30.26F WCI -15

$$
NMZ402-403-502-505>509-251400-
WESTCENTRAL MOUNTAINS/SOUTHWEST MOUNTAINS

CITY           SKY/WX    TMP DP  RH WIND       PRES   REMARKS
GALLUP         MOCLDY     8   1  73 CALM      30.45R
SILVER CITY    CLEAR     21   1  42 NW12      30.43R WCI   9

$$
NMZ407-409-411-412-251400-
SOUTHERN DESERTS

CITY           SKY/WX    TMP DP  RH WIND       PRES   REMARKS
DEMING         CLEAR     27   4  37 E3        30.42R
HOLLOMAN AFB   CLEAR     24  14  64 E8        30.39R WCI  16
ALAMOGORDO     CLEAR     25  12  58 MISG      30.40R
T OR C         CLEAR     27   6  41 NW8       30.41R WCI  19

$$
NMZ519>523-251400-
CENTRAL VALLEYS/CENTRAL HIGHLANDS

CITY           SKY/WX    TMP DP  RH WIND       PRES   REMARKS
ALBUQUERQUE    PTCLDY    20  11  68 CALM      30.43R
DOUBLE EAGLE   CLEAR     18   7  62 CALM      30.41R
MORIARTY ARPT  FAIR       6   3  85 CALM      30.37R
CLINES CORNERS CLEAR     14   6  70 NW14      30.29R WCI  -1
BELEN          FAIR      16   8  70 N5        30.42R WCI   8
SOCORRO        NOT AVBL

$$
NMZ524>526-539-540-251400-
SOUTHCENTRAL MOUNTAINS

CITY           SKY/WX    TMP DP  RH WIND       PRES   REMARKS
RUIDOSO        CLEAR     19  10  68 SW7       30.35S WCI  10

$$
NMZ527>531-251400-
NORTHEAST HIGHLANDS/NORTHEAST PLAINS

CITY           SKY/WX    TMP DP  RH WIND       PRES   REMARKS
LAS VEGAS      PTCLDY    15   7  70 CALM      30.24F
RATON          PTCLDY     8   5  87 E6        30.22S WCI  -2
CLAYTON        CLEAR     21  14  74 W12       30.23F WCI   9

$$
NMZ532>537-251400-
EASTCENTRAL PLAINS

CITY           SKY/WX    TMP DP  RH WIND       PRES   REMARKS
TUCUMCARI      CLEAR     23  18  81 W8        30.30S WCI  14
CANNON AFB     CLEAR     25  18  72 NW7       30.31S WCI  18
CLOVIS AIRPORT CLEAR     25  18  74 NW9       30.31S WCI  15

$$
NMZ028-029-538-251400-
SOUTHEAST PLAINS

CITY           SKY/WX    TMP DP  RH WIND       PRES   REMARKS
ROSWELL        CLEAR     30  17  58 W6        30.38R WCI  24
CARLSBAD       CLEAR     34  19  54 NW12      30.40R WCI  25
HOBBS          CLEAR     28  18  64 NW7       30.36R WCI  21


$$


USA.gov is the U.S. government's official web portal to all federal, state and local government web resources and services.